DW9614 Weather Reports


Display with metric or nautical units.
time (UTC)temp
F
wind
direction
speed
MPH
gust
MPH
rain 1hr
in
rain 24hr
in
rain mn
in
humidity
%
barometer
mb
20260507193007 62 209 9.0 17.0 0.00 0.00 0.00 43 1012.8
20260507191503 62 134 7.0 12.0 0.00 0.00 0.00 42 1013.0
20260507184600 62 204 5.0 14.0 0.00 0.00 0.00 41 1013.4
20260507183100 61 212 7.0 14.0 0.00 0.00 0.00 42 1013.6
20260507181556 61 210 6.0 12.0 0.00 0.00 0.00 43 1013.7
20260507180104 61 188 4.0 15.0 0.00 0.00 0.00 42 1013.9
20260507174553 62 207 7.0 12.0 0.00 0.00 0.00 40 1014.3
20260507173055 62 208 8.0 15.0 0.00 0.00 0.00 40 1014.5
20260507171555 61 229 5.0 11.0 0.00 0.00 0.00 43 1014.6
20260507170050 60 296 6.0 13.0 0.00 0.00 0.00 41 1015.1
20260507164544 60 211 5.0 14.0 0.00 0.00 0.00 41 1015.3
20260507163044 59 269 5.0 12.0 0.00 0.00 0.00 43 1015.4
20260507161542 60 229 4.0 15.0 0.00 0.00 0.00 41 1015.5
20260507160039 59 227 4.0 13.0 0.00 0.00 0.00 46 1015.5
20260507154540 57 192 6.0 13.0 0.00 0.00 0.00 46 1015.7
20260507153045 58 276 3.0 8.0 0.00 0.00 0.00 42 1015.8
20260507151534 57 246 3.0 10.0 0.00 0.00 0.00 49 1016.0
20260507150033 56 230 4.0 9.0 0.00 0.00 0.00 47 1016.0
20260507144530 55 235 4.0 9.0 0.00 0.00 0.00 50 1016.2
20260507143030 54 207 4.0 9.0 0.00 0.00 0.00 49 1016.4
20260507141527 53 219 5.0 10.0 0.00 0.00 0.00 52 1016.5
20260507140026 52 197 4.0 8.0 0.00 0.00 0.00 54 1016.5
20260507134525 51 221 2.0 8.0 0.00 0.00 0.00 59 1016.5
20260507133024 51 214 3.0 6.0 0.00 0.00 0.00 59 1016.4
20260507131522 51 214 2.0 5.0 0.00 0.00 0.00 57 1016.3
20260507130018 50 228 1.0 5.0 0.00 0.00 0.00 57 1016.2
20260507124517 48 294 2.0 3.0 0.00 0.00 0.00 63 1016.2
20260507123011 46 298 0.0 3.0 0.00 0.00 0.00 69 1016.2
20260507121507 44 307 1.0 3.0 0.00 0.00 0.00 72 1016.0
20260507120006 43 311 0.0 3.0 0.00 0.00 0.00 76 1016.0
20260507114607 41 312 0.0 0.0 0.00 0.00 0.00 80 1015.9
20260507113006 40 313 0.0 1.0 0.00 0.00 0.00 81 1015.8
20260507111509 41 313 0.0 0.0 0.00 0.00 0.00 81 1015.8
20260507110005 41 313 0.0 0.0 0.00 0.00 0.00 81 1015.8
20260507104504 41 313 0.0 0.0 0.00 0.00 0.00 82 1015.7
20260507103003 41 313 0.0 0.0 0.00 0.00 0.00 82 1015.8
20260507101504 41 313 0.0 0.0 0.00 0.00 0.00 83 1015.8
20260507100005 40 313 0.0 0.0 0.00 0.00 0.00 82 1015.8
20260507094500 40 313 0.0 0.0 0.00 0.00 0.00 82 1015.7
20260507093103 40 313 0.0 0.0 0.00 0.00 0.00 82 1015.7
20260507091606 40 313 0.0 0.0 0.00 0.00 0.00 81 1016.1
20260507090058 40 313 0.0 0.0 0.00 0.00 0.00 81 1016.1
20260507084558 41 313 0.0 0.0 0.00 0.00 0.00 81 1016.0
20260507083103 40 313 0.0 0.0 0.00 0.00 0.00 82 1016.0
20260507081556 40 313 0.0 0.0 0.00 0.00 0.00 82 1015.8
20260507080131 39 313 0.0 0.0 0.00 0.00 0.00 81 1016.0
20260507074602 39 313 0.0 0.0 0.00 0.00 0.00 80 1016.0
20260507073101 39 313 0.0 0.0 0.00 0.00 0.00 79 1016.1
20260507071601 40 313 0.0 0.0 0.00 0.00 0.00 78 1016.1
20260507070050 40 313 0.0 0.0 0.00 0.00 0.00 77 1016.1
20260507064552 41 313 0.0 0.0 0.00 0.00 0.00 76 1016.2
20260507063046 41 313 0.0 0.0 0.00 0.00 0.00 75 1016.2
20260507061544 42 312 0.0 0.0 0.00 0.00 0.00 74 1016.1
20260507060047 42 313 0.0 0.0 0.00 0.00 0.00 73 1016.1
20260507054548 43 313 0.0 0.0 0.00 0.00 0.00 70 1016.2
20260507051536 44 313 0.0 0.0 0.00 0.00 0.00 69 1016.2
20260507050035 44 313 0.0 0.0 0.00 0.01 0.00 67 1016.2
20260507044534 45 313 0.0 0.0 0.00 0.01 0.00 66 1016.3
20260507043036 45 313 0.0 0.0 0.00 0.01 0.00 64 1016.3
20260507041532 46 313 0.0 0.0 0.00 0.01 0.00 63 1016.4
20260507040035 47 313 0.0 0.0 0.00 0.02 0.00 60 1016.4
20260507034531 47 313 0.0 0.0 0.00 0.02 0.00 59 1016.5
20260507033029 48 313 0.0 0.0 0.00 0.02 0.00 58 1016.5
20260507031528 48 339 0.0 5.0 0.00 0.02 0.00 57 1016.4
20260507030031 49 325 4.0 7.0 0.00 0.04 0.00 57 1016.3
20260507024526 49 327 3.0 6.0 0.00 0.04 0.00 57 1016.3
20260507023028 49 325 0.0 0.0 0.00 0.04 0.00 57 1016.1
20260507021522 50 321 0.0 0.0 0.00 0.04 0.00 57 1015.8
20260507020021 50 319 0.0 0.0 0.00 0.05 0.00 56 1015.5
20260507014520 51 319 0.0 0.0 0.00 0.05 0.00 53 1015.2
20260507013021 52 319 0.0 0.0 0.00 0.05 0.00 52 1015.2
20260507011533 53 317 2.0 6.0 0.00 0.05 0.00 50 1015.1
20260507010017 54 327 3.0 7.0 0.00 0.06 0.00 49 1015.0
20260507004518 55 310 2.0 11.0 0.00 0.06 0.00 47 1014.8
20260507003019 55 322 0.0 0.0 0.00 0.06 0.00 46 1014.6
20260507001515 55 303 0.0 2.0 0.00 0.06 0.00 44 1014.7
20260507000015 56 309 4.0 9.0 0.00 0.07 0.00 41 1014.6
20260506234515 58 297 3.0 9.0 0.00 0.07 0.00 41 1014.5
20260506233014 58 304 5.0 11.0 0.00 0.07 0.00 40 1014.5
20260506231513 59 326 0.0 11.0 0.00 0.07 0.00 42 1014.6
20260506230011 59 355 3.0 9.0 0.00 0.07 0.00 41 1014.5
20260506224522 60 349 4.0 10.0 0.00 0.07 0.00 41 1014.5
20260506223010 59 286 6.0 12.0 0.00 0.07 0.00 41 1014.6
20260506220009 60 355 4.0 11.0 0.00 0.09 0.00 42 1014.5
20260506214509 59 360 3.0 9.0 0.00 0.09 0.00 43 1014.4
20260506213013 59 292 5.0 11.0 0.00 0.09 0.00 42 1014.4
20260506211509 59 295 6.0 12.0 0.00 0.09 0.00 42 1014.3
20260506210007 62 284 3.0 12.0 0.00 0.12 0.00 39 1014.3
20260506204507 62 299 6.0 13.0 0.00 0.12 0.00 40 1014.3
20260506203006 59 348 4.0 12.0 0.00 0.12 0.00 41 1014.5
20260506201506 61 345 5.0 10.0 0.00 0.12 0.00 39 1014.6
20260506200006 64 321 4.0 9.0 0.00 0.15 0.00 41 1014.5
20260506194503 59 288 3.0 9.0 0.00 0.15 0.00 46 1014.5